Wind_Speed
6 5 5 5 6 6 7 6 6 6 5 4 4 4 4 5 5 5 5 6 6 6 7 7 7 7 7 7 6 6 5 5 4 4 4 5 6 6 6 5 6 7 7
5 4 5 5 5 6 6 5 6 5 5 4 4 4 4 4 5 5 6 5 5 6 6 7 6 6 6 6 5 5 4 4 4 4 4 5 6 6 6 6 6 6 7
5 4 5 5 5 6 6 5 5 5 5 4 4 5 5 5 4 4 5 5 6 7 7 6 6 5 5 4 4 3 4 4 4 4 5 5 5 6 6 6 6 6 6
6 5 5 6 6 6 6 5 5 5 5 5 6 5 5 4 4 5 5 5 6 6 6 5 5 4 4 4 4 3 3 4 4 4 5 5 6 6 6 6 6 6 6
6 5 5 6 6 6 6 6 6 5 5 5 5 5 5 6 5 5 6 5 5 5 5 5 5 4 4 3 3 3 3 3 4 4 5 5 5 5 5 5 5 6 6
7 6 6 6 6 6 6 6 6 6 5 5 6 5 5 6 6 6 6 5 5 4 4 4 4 4 3 3 3 3 3 3 4 4 4 4 4 4 4 4 5 5 5
7 7 6 7 6 5 6 6 6 6 5 6 6 5 5 5 5 5 6 5 4 4 4 4 3 4 4 3 4 3 4 4 4 5 4 4 4 4 4 4 4 4 5
8 7 6 6 6 6 6 6 6 6 6 6 6 5 5 5 5 5 4 4 4 4 4 4 3 4 4 4 4 4 4 4 5 5 5 4 4 3 4 3 3 4 4
9 8 8 7 6 6 5 6 6 5 5 5 6 6 5 4 4 4 4 4 3 3 4 4 3 3 3 3 3 4 4 4 4 4 5 4 4 3 3 3 3 3 3
11 10 9 8 6 6 5 5 5 5 5 5 5 5 5 5 4 4 3 3 3 3 3 3 3 3 3 3 4 4 3 4 4 4 3 3 3 3 3 3 2 3 2
12 12 10 9 8 7 5 5 5 4 4 5 5 5 5 4 4 3 3 3 3 3 3 3 3 3 3 4 4 4 4 4 4 3 3 3 2 2 3 2 3 3 2
13 12 11 10 9 8 7 5 4 4 4 4 4 5 5 4 3 4 3 3 3 3 3 3 3 3 3 4 4 3 3 4 3 3 2 2 2 2 3 3 3 3 3
13 13 12 11 10 9 7 6 5 4 3 4 4 5 5 5 4 4 4 3 3 3 3 3 3 3 3 3 3 3 3 3 3 2 2 2 2 2 3 3 4 4 3
14 13 12 12 11 11 9 7 6 5 4 5 5 5 5 4 4 3 4 4 3 3 3 4 3 3 3 3 3 3 3 3 2 2 2 2 2 3 3 4 4 5 5
15 14 13 13 12 11 10 8 6 5 5 5 5 5 5 4 3 3 3 4 3 3 3 3 3 3 3 3 3 3 3 3 2 2 2 3 3 3 4 4 5 6 6
16 15 13 13 12 11 11 10 7 6 5 4 4 4 4 4 3 3 3 4 3 3 3 3 3 3 4 4 3 3 3 3 3 3 3 4 4 4 4 5 5 6 6
16 15 13 12 12 11 11 10 8 6 5 4 3 3 4 4 3 3 3 4 3 3 3 4 4 4 4 4 4 3 4 4 5 5 5 5 5 5 5 6 6 7 7
16 15 14 12 11 11 10 10 8 6 5 4 3 3 3 3 3 3 3 3 3 3 3 4 4 4 4 4 4 4 4 5 6 6 6 6 6 7 7 8 8 8 9
16 15 14 12 11 11 10 9 8 7 6 4 3 2 1 2 2 2 2 3 3 3 4 4 4 5 4 5 5 5 5 6 6 7 7 8 8 8 8 9 9 10 10
16 15 14 12 11 11 11 10 8 7 6 5 3 2 1 0 1 1 2 2 3 3 4 4 5 5 6 6 6 6 6 7 7 7 8 8 9 9 9 10 10 11 11
15 15 14 13 12 11 10 10 9 7 6 4 4 3 1 0 1 2 2 2 2 3 4 5 6 6 6 6 7 7 8 8 9 9 9 10 10 10 11 12 12 12 13
14 14 14 13 12 11 10 9 9 8 7 5 4 3 2 1 2 3 3 2 2 3 4 5 5 6 7 7 8 8 8 9 10 10 11 11 11 12 12 13 13 13 13
13 12 12 12 11 11 10 9 9 8 7 5 5 4 3 2 1 2 3 3 3 4 5 6 6 7 7 8 8 9 10 10 11 12 11 11 12 12 13 13 14 14 14
12 11 12 11 11 11 10 9 9 8 7 6 5 4 4 3 3 3 3 4 5 5 5 6 7 7 8 8 9 9 10 10 11 12 12 12 12 13 13 14 14 14 14
11 10 11 11 10 10 10 9 9 8 7 6 5 4 4 4 4 4 4 4 5 6 6 7 8 8 9 9 10 10 11 11 12 12 13 13 13 13 14 14 14 15 15
9 9 9 9 9 9 9 9 9 8 8 7 7 5 4 4 4 4 5 5 6 7 7 8 9 9 10 11 11 12 12 12 12 13 14 14 14 15 15 15 15 15 15
Wind_Direction
68 87 95 110 112 101 97 102 101 99 101 108 122 119 120 120 114 126 133 129 135 139 138 140 138 133 129 124 125 127 128 128 118 118 121 126 129 124 119 119 120 123 121
65 84 104 115 113 106 103 102 103 104 106 106 115 118 126 125 127 131 129 130 132 138 145 148 137 134 133 133 131 126 126 132 130 120 124 130 128 121 119 119 120 124 122
68 75 90 103 113 113 109 103 104 106 106 102 103 103 114 108 106 115 125 121 119 121 132 137 136 135 134 134 137 133 131 133 137 136 132 128 124 124 122 121 120 121 125
65 75 84 98 104 107 104 103 101 103 100 102 100 103 111 115 108 118 121 115 116 119 124 131 133 132 132 133 138 142 136 131 132 142 138 128 125 128 124 119 118 116 118
61 69 79 93 95 100 99 97 98 98 104 106 103 114 123 123 120 122 117 111 110 115 119 124 126 133 135 145 152 149 141 137 139 143 140 134 128 129 130 126 121 120 120
57 63 74 88 91 92 93 94 97 102 112 108 103 110 119 126 127 128 123 117 118 117 119 123 124 135 143 150 148 142 138 141 148 153 153 143 131 129 132 134 132 127 121
54 64 72 78 87 91 91 93 99 105 108 113 114 110 111 121 121 122 126 125 126 130 132 129 130 134 142 147 151 145 140 145 149 158 160 155 147 139 145 146 143 137 132
53 61 67 71 81 93 99 101 103 106 104 99 102 110 109 101 103 117 125 124 130 140 142 141 136 133 144 151 159 152 145 141 142 152 156 154 151 151 152 147 146 149 143
57 63 66 65 71 85 99 103 104 105 105 103 102 105 106 106 108 119 126 126 121 128 145 147 144 143 145 144 147 149 149 145 148 154 153 150 145 151 159 160 146 156 159
59 62 64 64 68 82 95 105 109 108 106 109 108 107 111 112 111 113 121 125 120 128 147 152 147 153 149 139 138 140 145 149 152 157 155 157 155 165 176 183 169 156 160
58 60 60 60 66 75 87 104 108 108 104 103 108 108 118 118 117 119 118 122 124 131 142 151 149 153 149 140 141 143 142 147 148 153 164 172 173 183 196 200 195 180 171
57 60 60 62 64 71 80 90 105 108 108 110 117 118 117 123 128 130 128 119 121 134 142 145 149 153 150 144 144 148 156 158 153 155 157 174 192 206 206 200 201 200 199
54 58 60 61 61 63 71 76 86 105 112 121 124 121 122 127 134 137 133 133 129 132 138 144 150 153 154 150 150 155 157 166 172 179 177 192 212 221 215 214 218 222 225
50 55 57 57 58 59 64 70 77 91 108 126 122 121 123 128 134 148 149 150 142 139 136 144 161 156 156 163 163 166 170 173 185 196 217 230 237 239 240 233 237 238 240
46 49 54 54 55 54 54 61 73 84 94 113 123 126 135 140 143 153 156 160 154 151 150 157 168 169 165 171 177 184 195 203 218 227 237 245 250 253 253 249 248 249 251
43 46 50 52 52 50 49 52 63 80 94 101 120 131 144 151 154 160 159 167 166 167 171 175 176 174 180 188 196 205 211 222 241 255 260 259 257 258 260 256 256 260 264
40 42 46 49 49 47 45 46 54 71 83 91 106 131 141 147 149 155 168 176 183 182 183 185 189 194 201 206 213 226 234 245 254 257 257 261 261 259 262 262 264 269 271
38 40 43 46 46 43 41 43 47 57 68 82 95 116 135 147 164 177 178 193 199 201 198 195 199 203 210 218 230 245 253 258 262 260 259 262 263 265 264 262 265 270 273
35 36 39 42 42 41 40 41 47 50 56 61 69 97 116 133 145 166 185 195 206 210 208 207 208 217 229 240 250 259 261 261 265 264 264 264 266 269 266 265 267 271 272
32 34 37 39 40 40 39 39 42 41 44 48 52 55 48 108 159 180 193 201 215 220 221 223 230 236 244 252 262 266 267 267 268 270 268 265 266 268 270 272 275 275 275
30 30 32 35 36 35 35 34 34 34 37 42 42 43 24 299 229 208 208 220 235 236 236 240 244 245 248 254 264 270 267 270 271 274 272 270 270 271 273 274 277 277 275
27 26 28 31 32 31 30 30 31 32 35 32 24 22 5 301 254 225 229 245 255 257 258 256 255 256 259 261 267 272 276 276 276 277 278 276 274 275 276 275 278 279 279
23 22 22 25 26 26 24 25 27 27 27 26 21 14 359 338 315 269 261 263 266 269 273 269 269 272 272 269 268 272 275 281 281 282 282 280 276 276 277 280 280 280 280
20 20 21 21 21 22 22 20 20 21 20 15 9 6 3 349 328 310 283 275 275 278 281 278 274 274 275 273 273 275 277 281 283 284 287 286 282 278 275 277 279 278 279
14 16 18 19 18 18 19 19 16 17 18 13 6 357 357 352 330 318 302 285 282 282 283 281 277 276 278 279 279 279 279 280 282 283 285 286 285 282 277 275 277 277 279
5 9 11 12 12 10 11 13 10 7 6 5 1 351 342 334 319 313 308 298 291 290 288 287 283 280 279 281 281 282 283 283 283 282 281 282 283 284 281 277 277 277 277
Height
5867 5867 5867 5866 5866 5867 5867 5868 5869 5869 5870 5871 5872 5873 5874 5875 5876 5877 5878 5879 5880 5881 5882 5883 5884 5885 5886 5887 5888 5889 5890 5891 5892 5892 5892 5893 5893 5894 5894 5895 5896 5896 5897
5868 5867 5867 5867 5868 5868 5868 5869 5869 5870 5871 5871 5872 5873 5874 5876 5877 5878 5879 5880 5881 5882 5883 5884 5885 5886 5887 5888 5889 5889 5890 5891 5892 5893 5893 5893 5894 5895 5895 5896 5896 5897 5898
5869 5869 5868 5867 5868 5869 5869 5870 5870 5870 5871 5872 5873 5874 5875 5876 5877 5878 5879 5881 5882 5883 5884 5885 5886 5887 5887 5888 5889 5890 5891 5892 5892 5893 5894 5894 5895 5895 5896 5897 5897 5898 5899
5870 5869 5869 5868 5869 5869 5870 5870 5871 5871 5872 5873 5874 5875 5876 5877 5878 5879 5880 5881 5882 5884 5884 5885 5886 5887 5888 5889 5890 5891 5891 5892 5893 5894 5895 5895 5896 5896 5897 5897 5898 5899 5899
5871 5870 5870 5869 5870 5870 5870 5871 5871 5872 5873 5874 5875 5876 5877 5878 5879 5880 5881 5882 5883 5884 5885 5886 5887 5888 5889 5890 5890 5891 5892 5893 5893 5894 5895 5896 5896 5897 5897 5898 5899 5899 5900
5872 5871 5870 5870 5870 5871 5871 5871 5872 5873 5874 5875 5876 5877 5878 5879 5880 5881 5882 5883 5884 5885 5886 5887 5888 5888 5889 5890 5891 5891 5892 5893 5894 5895 5896 5896 5897 5897 5898 5899 5899 5900 5900
5873 5872 5871 5871 5871 5871 5872 5872 5873 5874 5875 5875 5876 5877 5878 5879 5880 5882 5883 5884 5884 5885 5886 5887 5888 5889 5890 5891 5891 5892 5892 5893 5894 5895 5896 5897 5897 5898 5899 5899 5900 5900 5901
5874 5873 5873 5872 5872 5872 5873 5873 5874 5874 5875 5876 5876 5878 5879 5879 5881 5882 5883 5884 5885 5886 5887 5888 5889 5889 5890 5891 5891 5892 5893 5893 5894 5895 5896 5897 5898 5898 5899 5900 5900 5901 5901
5876 5875 5874 5873 5873 5873 5873 5874 5874 5875 5876 5877 5877 5878 5879 5880 5881 5882 5883 5884 5885 5886 5887 5888 5889 5890 5890 5891 5892 5892 5893 5894 5895 5896 5897 5897 5898 5899 5899 5900 5900 5901 5902
5877 5876 5875 5875 5874 5874 5874 5874 5875 5876 5877 5877 5878 5879 5880 5881 5882 5883 5884 5885 5886 5886 5887 5888 5889 5890 5890 5891 5892 5893 5893 5894 5895 5896 5897 5898 5898 5899 5900 5900 5901 5901 5902
5879 5878 5877 5876 5876 5875 5875 5875 5876 5876 5877 5878 5879 5879 5880 5881 5882 5883 5884 5885 5886 5887 5887 5888 5889 5890 5891 5892 5892 5893 5894 5895 5896 5897 5897 5898 5899 5899 5900 5900 5901 5901 5902
5881 5880 5879 5878 5877 5877 5876 5876 5877 5877 5878 5878 5879 5880 5881 5882 5882 5883 5885 5885 5886 5887 5888 5889 5889 5890 5891 5892 5893 5894 5894 5895 5896 5897 5897 5898 5899 5899 5900 5900 5901 5901 5901
5883 5882 5881 5880 5879 5878 5878 5877 5878 5878 5878 5879 5880 5880 5881 5882 5883 5884 5885 5886 5886 5887 5888 5889 5890 5891 5892 5893 5893 5894 5895 5896 5896 5897 5898 5898 5898 5899 5899 5900 5900 5901 5901
5885 5884 5882 5881 5881 5880 5879 5879 5879 5879 5879 5879 5880 5881 5882 5883 5884 5884 5885 5886 5887 5887 5888 5889 5890 5891 5892 5893 5894 5894 5895 5896 5896 5897 5897 5898 5898 5899 5899 5899 5900 5900 5901
5887 5886 5884 5883 5882 5882 5881 5880 5880 5880 5880 5880 5881 5881 5882 5883 5884 5885 5885 5886 5887 5888 5888 5889 5890 5891 5892 5893 5894 5895 5895 5896 5896 5897 5897 5897 5898 5898 5899 5899 5899 5900 5900
5889 5888 5887 5886 5885 5884 5882 5881 5881 5881 5881 5881 5881 5882 5883 5883 5884 5885 5886 5886 5887 5888 5889 5889 5890 5891 5892 5893 5894 5895 5895 5896 5896 5896 5897 5897 5897 5898 5898 5898 5898 5899 5899
5892 5890 5889 5888 5887 5886 5885 5883 5883 5882 5882 5882 5882 5882 5883 5884 5884 5885 5886 5887 5887 5888 5889 5889 5890 5891 5892 5893 5894 5894 5895 5895 5895 5895 5896 5896 5896 5897 5897 5897 5897 5897 5897
5894 5892 5891 5890 5888 5887 5886 5885 5885 5884 5883 5883 5883 5883 5883 5884 5884 5885 5886 5887 5888 5888 5889 5889 5890 5891 5892 5892 5893 5894 5894 5894 5894 5894 5895 5895 5895 5895 5895 5896 5896 5896 5895
5896 5894 5893 5891 5890 5889 5888 5887 5886 5885 5884 5884 5884 5884 5884 5884 5884 5885 5886 5887 5887 5888 5888 5889 5890 5891 5891 5892 5892 5893 5893 5893 5893 5893 5893 5893 5894 5894 5894 5894 5894 5894 5893
5898 5896 5895 5893 5892 5890 5889 5888 5887 5886 5886 5885 5885 5884 5884 5884 5885 5885 5886 5887 5887 5888 5888 5889 5889 5890 5890 5891 5891 5891 5891 5892 5892 5892 5892 5892 5892 5892 5892 5892 5892 5892 5891
5900 5898 5896 5895 5893 5892 5891 5890 5889 5888 5887 5886 5886 5885 5885 5885 5885 5885 5886 5887 5887 5887 5888 5888 5888 5889 5889 5890 5890 5890 5890 5890 5890 5890 5890 5890 5890 5890 5890 5890 5890 5889 5889
5902 5900 5898 5896 5895 5894 5892 5891 5890 5889 5888 5887 5886 5886 5885 5885 5885 5885 5886 5886 5886 5887 5887 5887 5888 5888 5888 5888 5889 5889 5889 5889 5889 5888 5888 5888 5888 5888 5887 5887 5887 5887 5886
5903 5901 5899 5898 5896 5895 5893 5892 5891 5890 5889 5888 5887 5887 5886 5885 5885 5885 5886 5886 5886 5886 5886 5887 5887 5887 5887 5887 5887 5887 5887 5887 5886 5886 5886 5885 5885 5885 5885 5884 5884 5884 5883
5904 5902 5900 5899 5897 5896 5894 5893 5891 5890 5890 5889 5888 5887 5886 5886 5885 5885 5885 5885 5885 5885 5885 5885 5885 5885 5885 5885 5885 5885 5885 5885 5884 5884 5883 5883 5882 5882 5882 5881 5881 5880 5880
5905 5903 5901 5900 5898 5896 5895 5893 5892 5891 5890 5889 5888 5887 5886 5886 5885 5885 5884 5884 5884 5884 5884 5884 5884 5884 5883 5883 5883 5883 5882 5882 5882 5881 5881 5880 5879 5879 5878 5878 5877 5877 5876
5905 5903 5902 5900 5899 5897 5896 5894 5893 5891 5890 5889 5888 5887 5886 5886 5885 5884 5883 5883 5882 5882 5882 5882 5882 5881 5881 5881 5881 5880 5880 5880 5879 5879 5878 5877 5876 5876 5875 5874 5874 5873 5872